TimeEST,TemperatureF,Dew PointF,Humidity,Sea Level PressureIn,VisibilityMPH,Wind Direction,Wind SpeedMPH,Gust SpeedMPH,PrecipitationIn,Events,Conditions,WindDirDegrees,DateUTC
12:53 AM,70.0,64.9,84,30.07,10.0,North,8.1,-,N/A,,Overcast,10,2012-11-16 05:53:00
1:53 AM,69.1,64.9,87,30.06,10.0,North,8.1,-,N/A,,Partly Cloudy,360,2012-11-16 06:53:00
2:53 AM,66.9,64.9,93,30.06,10.0,North,8.1,-,N/A,,Overcast,360,2012-11-16 07:53:00
3:53 AM,66.0,64.0,93,30.06,10.0,North,10.4,-,N/A,,Scattered Clouds,350,2012-11-16 08:53:00
4:53 AM,66.0,63.0,90,30.06,10.0,North,8.1,-,N/A,,Overcast,360,2012-11-16 09:53:00
5:50 AM,66.2,62.6,88,30.08,10.0,North,9.2,-,N/A,,Overcast,10,2012-11-16 10:50:00
5:53 AM,66.0,63.0,90,30.08,10.0,North,9.2,-,N/A,,Overcast,360,2012-11-16 10:53:00
6:53 AM,64.9,63.0,93,30.08,10.0,NNW,5.8,-,N/A,,Mostly Cloudy,340,2012-11-16 11:53:00
7:13 AM,64.4,62.6,94,30.08,10.0,North,6.9,-,N/A,,Scattered Clouds,350,2012-11-16 12:13:00
7:30 AM,64.4,62.6,94,30.09,10.0,North,6.9,-,N/A,,Mostly Cloudy,350,2012-11-16 12:30:00
7:53 AM,64.9,63.0,93,30.09,10.0,North,5.8,-,N/A,,Overcast,10,2012-11-16 12:53:00
8:53 AM,70.0,64.9,84,30.11,10.0,North,6.9,-,N/A,,Overcast,350,2012-11-16 13:53:00
9:10 AM,69.8,64.4,83,30.11,10.0,NNW,6.9,-,N/A,,Overcast,340,2012-11-16 14:10:00
9:53 AM,70.0,64.0,81,30.12,10.0,NNE,11.5,-,N/A,,Mostly Cloudy,20,2012-11-16 14:53:00
10:19 AM,71.6,64.4,78,30.12,10.0,North,9.2,-,N/A,,Overcast,350,2012-11-16 15:19:00
10:53 AM,73.9,64.9,73,30.10,10.0,NNW,10.4,-,N/A,,Mostly Cloudy,330,2012-11-16 15:53:00
11:53 AM,75.9,64.9,69,30.07,10.0,NNE,6.9,-,N/A,,Partly Cloudy,30,2012-11-16 16:53:00
12:53 PM,75.9,64.9,69,30.05,10.0,North,3.5,-,N/A,,Overcast,350,2012-11-16 17:53:00
1:53 PM,75.9,64.9,69,30.04,10.0,NNE,4.6,-,N/A,,Overcast,20,2012-11-16 18:53:00
2:53 PM,75.9,66.0,71,30.03,10.0,NNW,11.5,-,N/A,,Mostly Cloudy,340,2012-11-16 19:53:00
3:53 PM,75.0,66.0,73,30.03,10.0,North,9.2,-,0.00,,Mostly Cloudy,350,2012-11-16 20:53:00
4:12 PM,71.6,66.2,83,30.03,6.0,East,5.8,-,0.02,Rain,Rain,80,2012-11-16 21:12:00
4:26 PM,73.4,66.2,78,30.03,10.0,NNE,3.5,-,0.02,Rain,Light Rain,20,2012-11-16 21:26:00
4:53 PM,73.0,66.9,81,30.04,10.0,North,5.8,-,0.02,,Partly Cloudy,360,2012-11-16 21:53:00
5:53 PM,71.1,66.9,87,30.04,10.0,NNE,4.6,-,N/A,,Scattered Clouds,20,2012-11-16 22:53:00
6:53 PM,71.1,66.0,84,30.06,10.0,North,8.1,-,N/A,,Mostly Cloudy,360,2012-11-16 23:53:00
7:53 PM,70.0,66.0,87,30.07,10.0,North,6.9,-,N/A,,Partly Cloudy,350,2012-11-17 00:53:00
8:53 PM,70.0,66.0,87,30.07,10.0,North,6.9,-,0.00,Rain,Light Rain,360,2012-11-17 01:53:00
9:53 PM,68.0,66.0,93,30.07,10.0,North,5.8,-,0.00,,Clear,360,2012-11-17 02:53:00
10:53 PM,69.1,66.9,93,30.07,10.0,NNE,4.6,-,N/A,,Partly Cloudy,30,2012-11-17 03:53:00
11:53 PM,68.0,66.0,93,30.05,10.0,NNE,3.5,-,N/A,,Clear,30,2012-11-17 04:53:00